HUANJING 1A (HJ-1A)

Last updated on Thu Nov 21 2024 00:02:26 GMT+0000 (Coordinated Universal Time)

1 33320U 08041A 24325.55219981 .00002984 00000+0 38741-3 0 9998 2 33320 97.6349 325.0073 0018663 216.5792 143.4148 14.81335820873397
UTC large
Height (km)
Speed (km/s)
/
Latitude / Longitude
Inclination (degrees)
Orbital Period (minutes)
Azimuth
Elevation
Range (km)
Doppler Factor

Next 0 passes for location: London (51.5072 / 0.1276)

Sorry there are no passes over London.